Weather History for KBFF - March, 2013

Change the Weather History Date:

Monday, March 4, 2013

  Actual Average Record
Temperature  
Mean Temperature 30 °F 35 °F  
Max Temperature 41 °F 49 °F 78 °F (1905)
Min Temperature 19 °F 20 °F -12 °F (1989)
Degree Days  
Heating Degree Days 35 30  
Month to date heating degree days 100 122  
Since 1 July heating degree days 4621 5034  
Cooling Degree Days 0 0  
Month to date cooling degree days 0 0  
Year to date cooling degree days 0 0  
Moisture  
Dew Point 13 °F    
Average Humidity 49    
Maximum Humidity 72    
Minimum Humidity 25    
Precipitation  
Precipitation 0.00 in 0.03 in 1.17 in (1935)
Month to date precipitation 0.00 0.10  
Year to date precipitation 0.54 1.11  
Snow  
Snow 0.00 in 0.20 in 7.50 in (1933)
Month to date snowfall 0.0 0.9  
Since 1 July snowfall 21.0 29.3  
Snow Depth 0.00 in    
Sea Level Pressure  
Sea Level Pressure 30.00 in    
Wind  
Wind Speed 20 mph (NW)    
Max Wind Speed 44 mph    
Max Gust Speed 53 mph    
Visibility 10 miles    
Events      
T = Trace of Precipitation, MM = Missing Value Source: NWS Daily Summary

Daily Weather History Graph

Daily Weather History Graph

Search for Another Location

Airport or City:

Trip Planner

Search our weather history database for the weather conditions in past years. The results will help you decide how hot, cold, wet, or windy it might be!

Date:

Astronomy

Mar. 04, 2013 Rise Set
Actual Time 6:24 AM MST 5:48 PM MST
Civil Twilight 5:56 AM MST 6:16 PM MST
Nautical Twilight 5:23 AM MST 6:48 PM MST
Astronomical Twilight 4:51 AM MST 7:21 PM MST
Moon 12:39 AM MST (3/4) 10:28 AM MST (3/4)
Length of Visible Light 12h 20m
Length of Day
11h 24m
Waning Gibbous, 51% of the Moon is Illuminated
Mar 4
Waning Gibbous
Mar 4
Last Quarter
Mar 11
New
Mar 19
First Quarter
Mar 27
Full

Hourly Weather History & Observations

Time (MST) Temp. Windchill Dew Point Humidity Pressure Visibility Wind Dir Wind Speed Gust Speed Precip Events Conditions
12:53 AM 32.0 °F 22.1 °F 23.0 °F 69% 29.73 in 10.0 mi NW 13.8 mph 21.9 mph N/A   Clear
1:53 AM 32.0 °F 23.6 °F 24.1 °F 73% 29.76 in 10.0 mi WNW 10.4 mph - N/A   Mostly Cloudy
2:53 AM 32.0 °F 23.0 °F 21.9 °F 66% 29.77 in 10.0 mi NW 11.5 mph 19.6 mph N/A   Overcast
3:53 AM 32.0 °F 23.0 °F 19.9 °F 61% 29.79 in 10.0 mi NW 11.5 mph 20.7 mph N/A   Overcast
4:53 AM 30.2 °F 21.9 °F 21.2 °F 69% 29.82 in 10.0 mi WNW 9.2 mph - N/A   Overcast
5:53 AM 30.9 °F 26.2 °F 21.0 °F 67% 29.84 in 10.0 mi WNW 4.6 mph - N/A   Overcast
6:53 AM 30.9 °F 27.5 °F 21.0 °F 67% 29.85 in 10.0 mi NNW 3.5 mph - N/A   Overcast
7:53 AM 34.0 °F 26.0 °F 19.9 °F 56% 29.87 in 10.0 mi NNW 10.4 mph - N/A   Mostly Cloudy
8:53 AM 36.0 °F 27.5 °F 17.1 °F 46% 29.87 in 10.0 mi NW 12.7 mph - N/A   Overcast
9:53 AM 37.9 °F 28.5 °F 17.1 °F 43% 29.87 in 10.0 mi NNW 17.3 mph - N/A   Partly Cloudy
10:53 AM 39.9 °F 28.8 °F 12.9 °F 33% 29.87 in 10.0 mi NNW 27.6 mph 33.4 mph N/A   Overcast
11:53 AM 37.0 °F 25.1 °F 10.9 °F 34% 29.94 in 10.0 mi NNW 26.5 mph 32.2 mph N/A   Overcast
12:53 PM 36.0 °F 23.9 °F 8.1 °F 31% 29.97 in 10.0 mi NW 25.3 mph 34.5 mph N/A   Mostly Cloudy
1:53 PM 37.0 °F 23.9 °F 5.0 °F 26% 29.98 in 10.0 mi NW 33.4 mph 41.4 mph N/A   Partly Cloudy
2:53 PM 37.0 °F 23.0 °F 5.0 °F 26% 30.01 in 10.0 mi NNW 39.1 mph 49.5 mph N/A   Mostly Cloudy
3:53 PM 34.0 °F 18.9 °F 6.1 °F 31% 30.07 in 8.0 mi NNW 38.0 mph 49.5 mph N/A   Scattered Clouds
4:53 PM 30.9 °F 13.7 °F 5.0 °F 33% 30.14 in 9.0 mi NNW 43.7 mph 52.9 mph N/A   Scattered Clouds
5:53 PM 26.1 °F 11.0 °F 6.1 °F 43% 30.21 in 10.0 mi NNW 24.2 mph 34.5 mph N/A   Clear
6:53 PM 25.0 °F 9.9 °F 7.0 °F 46% 30.26 in 10.0 mi NW 23.0 mph - N/A   Clear
7:53 PM 21.9 °F 5.8 °F 7.0 °F 53% 30.27 in 10.0 mi NW 23.0 mph 28.8 mph N/A   Clear
8:53 PM 21.0 °F 5.7 °F 6.1 °F 53% 30.30 in 10.0 mi NW 19.6 mph - N/A   Clear
9:53 PM 19.9 °F 6.2 °F 7.0 °F 57% 30.32 in 10.0 mi WNW 15.0 mph 23.0 mph N/A   Clear
10:53 PM 19.0 °F 3.6 °F 8.1 °F 62% 30.32 in 10.0 mi WNW 18.4 mph 26.5 mph N/A   Clear